Location: Unspecified
(62.2000°N, 0.0000°E)
Time: 12:27:07
(UTC+00:00)

CZ-6A DEB - Visible Passes

Search period start: 04 April 2026 00:00
Search period end: 14 April 2026 00:00
Orbit: 670 x 807 km, 98.6° (Epoch: 29 March)

Date Brightness Start Highest point End Pass type
(mag) Time Alt. Az. Time Alt. Az. Time Alt. Az.
4 Apr ? 20:22:11 10° SW 20:26:37 26° W 20:31:01 10° NNW visible
5 Apr ? 21:18:59 10° WSW 21:21:17 13° WNW 21:23:35 10° NW visible
6 Apr ? 20:31:43 10° SW 20:35:55 23° W 20:40:05 10° NW visible
7 Apr ? 19:45:48 10° SSW 19:50:49 42° W 19:55:45 10° NNW visible
7 Apr ? 21:29:10 10° W 21:30:38 11° WNW 21:32:06 10° WNW visible
8 Apr ? 20:41:17 10° SW 20:45:11 21° W 20:49:05 10° NW visible
9 Apr ? 19:55:09 10° SSW 20:00:02 37° W 20:04:51 10° NNW visible
10 Apr ? 20:50:53 10° SW 20:54:28 18° W 20:58:01 10° NW visible
11 Apr ? 20:04:31 10° SSW 20:09:14 33° W 20:13:53 10° NNW visible
12 Apr ? 21:00:32 10° WSW 21:03:43 16° W 21:06:53 10° NW visible
13 Apr ? 20:13:54 10° SSW 20:18:25 29° W 20:22:53 10° NNW visible
